GJOHN MMTJ-KLAX

Flight info

Callsign GJOHN
Flight time 1h 12m
Altitude 2500
Route TIJUAN MEXICO ZIPPP VPSSM COTTON WOOD GOLF COURSE LAKE JENNINGS SAN VINCENTE ISLAND LAKE POWAY LAKE HODGES VPSVA OCN VPSMP DANA POINT EMMY EVA OIL PLATFORMS QUEEN MARY HARBOR 405 INTERCHANGE KING HARBOR
Aircraft C182/L-VGDW/C

Departure

Time 2026-04-22 12:41
Airport General Abelardo L. Rodriguez International Airport (MMTJ)

Arrival

Time 2026-04-22 13:53
Airport Los Angeles International Airport (KLAX)
Time Latitude Longitude Altitude Speed Heading
2026-04-22 12:35 32.54581 -116.97828 493 ft 0 kts
2026-04-22 12:37 32.54582 -116.97828 493 ft 0 kts
2026-04-22 12:37 32.54592 -116.97818 493 ft 3 kts 86°
2026-04-22 12:37 32.54553 -116.97827 493 ft 11 kts 206°
2026-04-22 12:37 32.54452 -116.97841 493 ft 16 kts 182°
2026-04-22 12:38 32.54418 -116.97780 493 ft 8 kts 68°
2026-04-22 12:38 32.54470 -116.97738 493 ft 10 kts 94°
2026-04-22 12:38 32.54450 -116.97594 493 ft 22 kts 101°
2026-04-22 12:38 32.54424 -116.97416 493 ft 16 kts 131°
2026-04-22 12:39 32.54345 -116.97401 493 ft 14 kts 194°
2026-04-22 12:39 32.54174 -116.97251 493 ft 17 kts 121°
2026-04-22 12:39 32.54134 -116.97211 493 ft 3 kts 281°
2026-04-22 12:40 32.54158 -116.97389 493 ft 51 kts 282°
2026-04-22 12:40 32.54222 -116.97937 620 ft 77 kts 278°
2026-04-22 12:40 32.54315 -116.98653 797 ft 95 kts 282°
2026-04-22 12:40 32.54354 -116.99476 941 ft 100 kts 270°
2026-04-22 12:41 32.54351 -117.00205 1116 ft 92 kts 272°
2026-04-22 12:41 32.54380 -117.00935 1302 ft 86 kts 275°
2026-04-22 12:41 32.54422 -117.01613 1493 ft 80 kts 274°
2026-04-22 12:41 32.54465 -117.02247 1689 ft 76 kts 272°
2026-04-22 12:42 32.54580 -117.02839 1883 ft 75 kts 303°
2026-04-22 12:42 32.55050 -117.02986 2082 ft 76 kts 14°
2026-04-22 12:42 32.55376 -117.02501 2292 ft 77 kts 60°
2026-04-22 12:42 32.55622 -117.01937 2477 ft 81 kts 57°
2026-04-22 12:43 32.56015 -117.01342 2506 ft 104 kts 44°
2026-04-22 12:43 32.56590 -117.00713 2507 ft 121 kts 40°
2026-04-22 12:43 32.57258 -117.00037 2501 ft 130 kts 39°
2026-04-22 12:43 32.57915 -116.99383 2493 ft 118 kts 39°
2026-04-22 12:44 32.58520 -116.98783 2489 ft 110 kts 38°
2026-04-22 12:44 32.59088 -116.98222 2489 ft 104 kts 38°
2026-04-22 12:44 32.59633 -116.97684 2490 ft 101 kts 38°
2026-04-22 12:44 32.60245 -116.97275 2501 ft 103 kts 19°
2026-04-22 12:45 32.60950 -116.96980 2502 ft 111 kts 17°
2026-04-22 12:45 32.61701 -116.96686 2506 ft 116 kts 17°
2026-04-22 12:45 32.62478 -116.96386 2503 ft 119 kts 17°
2026-04-22 12:45 32.63272 -116.96081 2506 ft 121 kts 17°
2026-04-22 12:46 32.64100 -116.95763 2502 ft 125 kts 17°
2026-04-22 12:46 32.64935 -116.95444 2502 ft 127 kts 17°
2026-04-22 12:46 32.65778 -116.95120 2503 ft 128 kts 17°
2026-04-22 12:46 32.66625 -116.94796 2490 ft 126 kts 17°
2026-04-22 12:47 32.67431 -116.94486 2499 ft 119 kts 17°
2026-04-22 12:47 32.68208 -116.94203 2497 ft 115 kts 11°
2026-04-22 12:47 32.68992 -116.94158 2495 ft 111 kts 352°
2026-04-22 12:47 32.69759 -116.94237 2500 ft 112 kts 360°
2026-04-22 12:48 32.70498 -116.93943 2494 ft 114 kts 31°
2026-04-22 12:48 32.71142 -116.93403 2500 ft 113 kts 31°
2026-04-22 12:48 32.71837 -116.92992 2501 ft 111 kts 20°
2026-04-22 12:48 32.72563 -116.92686 2501 ft 110 kts 15°
2026-04-22 12:49 32.73306 -116.92422 2501 ft 110 kts 14°
2026-04-22 12:49 32.74041 -116.92174 2501 ft 110 kts 14°
2026-04-22 12:49 32.74778 -116.91944 2501 ft 110 kts 12°
2026-04-22 12:49 32.75519 -116.91731 2507 ft 110 kts 11°
2026-04-22 12:50 32.76282 -116.91515 2503 ft 115 kts 11°
2026-04-22 12:50 32.77071 -116.91292 2503 ft 118 kts 12°
2026-04-22 12:50 32.77871 -116.91067 2503 ft 119 kts 12°
2026-04-22 12:50 32.78679 -116.90839 2505 ft 120 kts 12°
2026-04-22 12:51 32.79503 -116.90607 2504 ft 123 kts 12°
2026-04-22 12:51 32.80338 -116.90372 2504 ft 124 kts 12°
2026-04-22 12:51 32.81181 -116.90134 2503 ft 125 kts 12°
2026-04-22 12:51 32.82025 -116.89896 2493 ft 123 kts 12°
2026-04-22 12:52 32.82836 -116.89667 2499 ft 118 kts 12°
2026-04-22 12:52 32.83621 -116.89446 2499 ft 114 kts 12°
2026-04-22 12:52 32.84398 -116.89227 2498 ft 113 kts 12°
2026-04-22 12:52 32.85153 -116.89014 2498 ft 111 kts 12°
2026-04-22 12:53 32.85911 -116.88930 2494 ft 110 kts 351°
2026-04-22 12:53 32.86646 -116.89160 2497 ft 109 kts 341°
2026-04-22 12:53 32.87362 -116.89448 2498 ft 109 kts 340°
2026-04-22 12:53 32.88072 -116.89745 2499 ft 108 kts 339°
2026-04-22 12:54 32.88781 -116.90048 2499 ft 108 kts 339°
2026-04-22 12:54 32.89488 -116.90350 2500 ft 108 kts 339°
2026-04-22 12:54 32.90196 -116.90654 2499 ft 108 kts 339°
2026-04-22 12:54 32.90366 -116.90727 2500 ft 108 kts 339°
2026-04-22 12:55 32.90952 -116.90978 2500 ft 108 kts 339°
2026-04-22 12:55 32.91657 -116.91281 2500 ft 108 kts 339°
2026-04-22 12:55 32.92354 -116.91616 2498 ft 108 kts 329°
2026-04-22 12:55 32.92947 -116.92178 2500 ft 107 kts 317°
2026-04-22 12:56 32.93493 -116.92791 2503 ft 110 kts 316°
2026-04-22 12:56 32.93995 -116.93373 2502 ft 111 kts 315°
2026-04-22 12:56 32.94550 -116.94023 2503 ft 113 kts 315°
2026-04-22 12:56 32.95106 -116.94678 2501 ft 112 kts 315°
2026-04-22 12:57 32.95652 -116.95321 2501 ft 110 kts 315°
2026-04-22 12:57 32.96193 -116.95959 2499 ft 110 kts 314°
2026-04-22 12:57 32.96734 -116.96598 2500 ft 110 kts 314°
2026-04-22 12:57 32.97274 -116.97236 2500 ft 110 kts 314°
2026-04-22 12:58 32.97813 -116.97874 2499 ft 109 kts 314°
2026-04-22 12:58 32.98350 -116.98508 2499 ft 109 kts 314°
2026-04-22 12:58 32.98885 -116.99140 2499 ft 108 kts 314°
2026-04-22 12:58 32.99420 -116.99774 2506 ft 110 kts 314°
2026-04-22 12:59 32.99978 -117.00434 2503 ft 113 kts 315°
2026-04-22 12:59 33.00522 -117.01124 2503 ft 115 kts 310°
2026-04-22 12:59 33.01021 -117.01877 2502 ft 116 kts 307°
2026-04-22 12:59 33.01509 -117.02645 2501 ft 116 kts 307°
2026-04-22 13:00 33.01993 -117.03414 2501 ft 115 kts 307°
2026-04-22 13:00 33.02454 -117.04151 2500 ft 115 kts 307°
2026-04-22 13:00 33.02930 -117.04913 2499 ft 115 kts 307°
2026-04-22 13:00 33.03402 -117.05671 2497 ft 114 kts 307°
2026-04-22 13:01 33.03870 -117.06421 2497 ft 112 kts 306°
2026-04-22 13:01 33.04329 -117.07157 2497 ft 110 kts 306°
2026-04-22 13:01 33.04782 -117.07885 2496 ft 109 kts 306°
2026-04-22 13:01 33.05234 -117.08610 2496 ft 109 kts 306°
2026-04-22 13:02 33.05690 -117.09342 2496 ft 108 kts 306°
2026-04-22 13:02 33.06137 -117.10061 2495 ft 108 kts 306°
2026-04-22 13:02 33.06585 -117.10780 2495 ft 108 kts 306°
2026-04-22 13:02 33.07051 -117.11479 2495 ft 108 kts 310°
2026-04-22 13:03 33.07548 -117.12148 2495 ft 108 kts 311°
2026-04-22 13:03 33.08051 -117.12813 2495 ft 108 kts 311°
2026-04-22 13:03 33.08557 -117.13475 2499 ft 108 kts 311°
2026-04-22 13:03 33.09063 -117.14137 2500 ft 108 kts 311°
2026-04-22 13:04 33.09567 -117.14796 2500 ft 108 kts 311°
2026-04-22 13:04 33.10070 -117.15452 2499 ft 107 kts 311°
2026-04-22 13:04 33.10573 -117.16109 2500 ft 107 kts 311°
2026-04-22 13:04 33.11075 -117.16764 2499 ft 107 kts 311°
2026-04-22 13:05 33.11579 -117.17423 2499 ft 108 kts 311°
2026-04-22 13:05 33.12084 -117.18083 2499 ft 108 kts 311°
2026-04-22 13:05 33.12598 -117.18755 2499 ft 108 kts 311°
2026-04-22 13:05 33.13106 -117.19419 2501 ft 109 kts 311°
2026-04-22 13:06 33.13627 -117.20099 2500 ft 112 kts 312°
2026-04-22 13:06 33.14152 -117.20785 2501 ft 114 kts 312°
2026-04-22 13:06 33.14696 -117.21496 2501 ft 115 kts 312°
2026-04-22 13:06 33.15236 -117.22203 2498 ft 115 kts 312°
2026-04-22 13:07 33.15764 -117.22893 2499 ft 112 kts 311°
2026-04-22 13:07 33.16284 -117.23572 2498 ft 110 kts 312°
2026-04-22 13:07 33.16797 -117.24244 2498 ft 109 kts 312°
2026-04-22 13:07 33.17306 -117.24910 2498 ft 109 kts 312°
2026-04-22 13:08 33.17813 -117.25574 2498 ft 108 kts 312°
2026-04-22 13:08 33.18321 -117.26237 2499 ft 108 kts 312°
2026-04-22 13:08 33.18811 -117.26878 2500 ft 107 kts 312°
2026-04-22 13:08 33.19251 -117.27593 2506 ft 108 kts 302°
2026-04-22 13:09 33.19655 -117.28372 2503 ft 112 kts 301°
2026-04-22 13:09 33.20060 -117.29179 2504 ft 115 kts 300°
2026-04-22 13:09 33.20468 -117.30002 2505 ft 116 kts 300°
2026-04-22 13:09 33.20879 -117.30831 2498 ft 115 kts 300°
2026-04-22 13:10 33.21280 -117.31642 2502 ft 112 kts 300°
2026-04-22 13:10 33.21671 -117.32432 2502 ft 110 kts 300°
2026-04-22 13:10 33.22056 -117.33210 2502 ft 109 kts 300°
2026-04-22 13:10 33.22440 -117.33986 2509 ft 110 kts 300°
2026-04-22 13:11 33.22751 -117.34735 2504 ft 113 kts 290°
2026-04-22 13:11 33.22980 -117.35646 2504 ft 116 kts 285°
2026-04-22 13:11 33.23183 -117.36581 2503 ft 117 kts 284°
2026-04-22 13:11 33.23380 -117.37527 2499 ft 117 kts 284°
2026-04-22 13:12 33.23572 -117.38453 2502 ft 114 kts 284°
2026-04-22 13:12 33.23760 -117.39361 2502 ft 112 kts 284°
2026-04-22 13:12 33.23945 -117.40258 2502 ft 111 kts 283°
2026-04-22 13:12 33.24274 -117.41086 2504 ft 112 kts 303°
2026-04-22 13:13 33.24738 -117.41845 2504 ft 114 kts 307°
2026-04-22 13:13 33.25230 -117.42597 2505 ft 116 kts 308°
2026-04-22 13:13 33.25732 -117.43349 2505 ft 116 kts 308°
2026-04-22 13:13 33.26238 -117.44100 2503 ft 116 kts 308°
2026-04-22 13:14 33.26744 -117.44849 2504 ft 113 kts 308°
2026-04-22 13:14 33.27234 -117.45574 2504 ft 112 kts 308°
2026-04-22 13:14 33.27720 -117.46292 2504 ft 111 kts 308°
2026-04-22 13:14 33.28204 -117.47007 2503 ft 110 kts 308°
2026-04-22 13:15 33.28683 -117.47714 2505 ft 109 kts 308°
2026-04-22 13:15 33.29156 -117.48413 2506 ft 108 kts 308°
2026-04-22 13:15 33.29626 -117.49109 2506 ft 108 kts 308°
2026-04-22 13:15 33.30096 -117.49802 2507 ft 107 kts 308°
2026-04-22 13:16 33.30565 -117.50496 2507 ft 107 kts 308°
2026-04-22 13:16 33.31033 -117.51188 2506 ft 107 kts 308°
2026-04-22 13:16 33.31500 -117.51879 2506 ft 107 kts 308°
2026-04-22 13:16 33.31968 -117.52571 2507 ft 107 kts 308°
2026-04-22 13:17 33.32435 -117.53262 2507 ft 107 kts 308°
2026-04-22 13:17 33.32902 -117.53954 2507 ft 107 kts 308°
2026-04-22 13:17 33.33376 -117.54655 2507 ft 107 kts 308°
2026-04-22 13:17 33.33843 -117.55346 2507 ft 107 kts 308°
2026-04-22 13:18 33.34311 -117.56039 2506 ft 107 kts 308°
2026-04-22 13:18 33.34778 -117.56730 2506 ft 107 kts 308°
2026-04-22 13:18 33.35246 -117.57423 2506 ft 107 kts 308°
2026-04-22 13:18 33.35713 -117.58115 2506 ft 107 kts 308°
2026-04-22 13:19 33.36180 -117.58807 2506 ft 107 kts 308°
2026-04-22 13:19 33.36648 -117.59500 2506 ft 107 kts 308°
2026-04-22 13:19 33.37115 -117.60192 2507 ft 107 kts 308°
2026-04-22 13:19 33.37583 -117.60882 2509 ft 107 kts 309°
2026-04-22 13:20 33.38080 -117.61544 2510 ft 107 kts 312°
2026-04-22 13:20 33.38591 -117.62192 2510 ft 107 kts 313°
2026-04-22 13:20 33.39106 -117.62837 2506 ft 108 kts 313°
2026-04-22 13:20 33.39623 -117.63482 2502 ft 108 kts 313°
2026-04-22 13:21 33.40148 -117.64136 2501 ft 108 kts 313°
2026-04-22 13:21 33.40667 -117.64781 2502 ft 107 kts 313°
2026-04-22 13:21 33.41184 -117.65424 2502 ft 107 kts 313°
2026-04-22 13:21 33.41700 -117.66066 2502 ft 107 kts 313°
2026-04-22 13:22 33.42218 -117.66710 2502 ft 107 kts 313°
2026-04-22 13:22 33.42735 -117.67353 2503 ft 107 kts 313°
2026-04-22 13:22 33.43251 -117.67996 2503 ft 107 kts 313°
2026-04-22 13:22 33.43766 -117.68637 2503 ft 107 kts 313°
2026-04-22 13:23 33.44281 -117.69277 2503 ft 107 kts 313°
2026-04-22 13:23 33.44795 -117.69917 2503 ft 107 kts 313°
2026-04-22 13:23 33.45309 -117.70555 2503 ft 107 kts 313°
2026-04-22 13:23 33.45820 -117.71198 2503 ft 107 kts 310°
2026-04-22 13:24 33.46280 -117.71892 2503 ft 107 kts 306°
2026-04-22 13:24 33.46723 -117.72603 2503 ft 107 kts 305°
2026-04-22 13:24 33.47021 -117.73085 2503 ft 107 kts 305°
2026-04-22 13:24 33.47463 -117.73802 2503 ft 107 kts 305°
2026-04-22 13:25 33.47902 -117.74519 2503 ft 107 kts 305°
2026-04-22 13:25 33.48342 -117.75236 2503 ft 107 kts 305°
2026-04-22 13:25 33.48780 -117.75952 2503 ft 107 kts 305°
2026-04-22 13:25 33.49217 -117.76665 2503 ft 107 kts 305°
2026-04-22 13:26 33.49655 -117.77380 2503 ft 106 kts 305°
2026-04-22 13:26 33.50092 -117.78095 2502 ft 106 kts 305°
2026-04-22 13:26 33.50534 -117.78819 2502 ft 106 kts 305°
2026-04-22 13:26 33.50971 -117.79532 2502 ft 106 kts 305°
2026-04-22 13:27 33.51408 -117.80248 2502 ft 106 kts 305°
2026-04-22 13:27 33.51845 -117.80961 2502 ft 106 kts 305°
2026-04-22 13:27 33.52282 -117.81677 2502 ft 106 kts 305°
2026-04-22 13:27 33.52718 -117.82391 2502 ft 106 kts 305°
2026-04-22 13:28 33.53155 -117.83105 2502 ft 106 kts 305°
2026-04-22 13:28 33.53591 -117.83820 2502 ft 106 kts 305°
2026-04-22 13:28 33.54028 -117.84535 2502 ft 106 kts 305°
2026-04-22 13:28 33.54464 -117.85250 2502 ft 106 kts 305°
2026-04-22 13:29 33.54901 -117.85965 2502 ft 106 kts 305°
2026-04-22 13:29 33.55337 -117.86679 2502 ft 106 kts 305°
2026-04-22 13:29 33.55775 -117.87396 2498 ft 107 kts 305°
2026-04-22 13:29 33.56218 -117.88124 2496 ft 107 kts 305°
2026-04-22 13:30 33.56656 -117.88840 2495 ft 107 kts 305°
2026-04-22 13:30 33.57094 -117.89559 2495 ft 107 kts 305°
2026-04-22 13:30 33.57531 -117.90275 2495 ft 107 kts 305°
2026-04-22 13:30 33.57967 -117.90990 2495 ft 107 kts 305°
2026-04-22 13:31 33.58404 -117.91707 2495 ft 107 kts 305°
2026-04-22 13:31 33.58841 -117.92424 2495 ft 107 kts 305°
2026-04-22 13:31 33.59276 -117.93139 2494 ft 107 kts 305°
2026-04-22 13:31 33.59713 -117.93856 2494 ft 107 kts 305°
2026-04-22 13:32 33.60149 -117.94571 2494 ft 107 kts 305°
2026-04-22 13:32 33.60586 -117.95289 2493 ft 107 kts 305°
2026-04-22 13:32 33.61022 -117.96005 2492 ft 107 kts 305°
2026-04-22 13:32 33.61460 -117.96724 2491 ft 107 kts 305°
2026-04-22 13:33 33.61902 -117.97450 2490 ft 107 kts 305°
2026-04-22 13:33 33.62339 -117.98168 2489 ft 107 kts 305°
2026-04-22 13:33 33.62776 -117.98886 2488 ft 107 kts 305°
2026-04-22 13:33 33.63211 -117.99601 2495 ft 106 kts 305°
2026-04-22 13:34 33.63645 -118.00315 2498 ft 106 kts 305°
2026-04-22 13:34 33.64079 -118.01028 2497 ft 106 kts 305°
2026-04-22 13:34 33.64514 -118.01743 2496 ft 106 kts 305°
2026-04-22 13:34 33.64949 -118.02458 2495 ft 106 kts 305°
2026-04-22 13:35 33.65386 -118.03173 2493 ft 106 kts 305°
2026-04-22 13:35 33.65822 -118.03888 2490 ft 107 kts 305°
2026-04-22 13:35 33.66265 -118.04603 2487 ft 107 kts 306°
2026-04-22 13:35 33.66708 -118.05312 2487 ft 107 kts 306°
2026-04-22 13:36 33.67159 -118.06031 2490 ft 106 kts 306°
2026-04-22 13:36 33.67603 -118.06738 2491 ft 106 kts 306°
2026-04-22 13:36 33.68047 -118.07444 2491 ft 106 kts 306°
2026-04-22 13:36 33.68491 -118.08151 2491 ft 106 kts 306°
2026-04-22 13:37 33.68935 -118.08857 2491 ft 106 kts 306°
2026-04-22 13:37 33.69380 -118.09565 2491 ft 106 kts 306°
2026-04-22 13:37 33.69824 -118.10271 2491 ft 106 kts 306°
2026-04-22 13:37 33.70269 -118.10979 2492 ft 106 kts 306°
2026-04-22 13:38 33.70712 -118.11686 2492 ft 106 kts 306°
2026-04-22 13:38 33.71600 -118.13100 2494 ft 106 kts 306°
2026-04-22 13:38 33.72044 -118.13806 2495 ft 106 kts 306°
2026-04-22 13:39 33.72488 -118.14513 2497 ft 106 kts 306°
2026-04-22 13:39 33.72913 -118.15189 2457 ft 97 kts 306°
2026-04-22 13:39 33.73269 -118.15755 2333 ft 98 kts 306°
2026-04-22 13:39 33.73680 -118.16409 2199 ft 98 kts 306°
2026-04-22 13:40 33.74092 -118.17067 2018 ft 100 kts 306°
2026-04-22 13:40 33.74512 -118.17735 1812 ft 101 kts 306°
2026-04-22 13:40 33.74934 -118.18405 1609 ft 101 kts 306°
2026-04-22 13:40 33.75410 -118.19020 1406 ft 101 kts 318°
2026-04-22 13:41 33.75955 -118.19557 1226 ft 99 kts 321°
2026-04-22 13:41 33.76462 -118.20032 1212 ft 89 kts 321°
2026-04-22 13:41 33.76933 -118.20469 1201 ft 83 kts 321°
2026-04-22 13:41 33.77384 -118.20883 1200 ft 83 kts 320°
2026-04-22 13:42 33.77858 -118.21320 1211 ft 89 kts 320°
2026-04-22 13:42 33.78364 -118.21785 1215 ft 94 kts 321°
2026-04-22 13:42 33.78892 -118.22271 1214 ft 98 kts 321°
2026-04-22 13:42 33.79432 -118.22766 1204 ft 96 kts 321°
2026-04-22 13:43 33.79956 -118.23245 1199 ft 94 kts 321°
2026-04-22 13:43 33.80471 -118.23717 1194 ft 90 kts 321°
2026-04-22 13:43 33.80961 -118.24166 1191 ft 88 kts 321°
2026-04-22 13:43 33.81441 -118.24606 1190 ft 86 kts 321°
2026-04-22 13:44 33.81909 -118.25035 1194 ft 84 kts 321°
2026-04-22 13:44 33.82369 -118.25457 1198 ft 84 kts 320°
2026-04-22 13:44 33.82838 -118.25887 1203 ft 86 kts 321°
2026-04-22 13:44 33.83320 -118.26330 1206 ft 88 kts 321°
2026-04-22 13:45 33.83512 -118.26506 1207 ft 89 kts 321°
2026-04-22 13:45 33.84002 -118.26956 1207 ft 90 kts 321°
2026-04-22 13:45 33.84501 -118.27415 1207 ft 91 kts 320°
2026-04-22 13:45 33.84990 -118.27896 1205 ft 91 kts 320°
2026-04-22 13:46 33.85492 -118.28351 1204 ft 90 kts 322°
2026-04-22 13:46 33.86033 -118.28732 1202 ft 91 kts 334°
2026-04-22 13:46 33.86625 -118.29010 1202 ft 90 kts 338°
2026-04-22 13:46 33.87217 -118.29267 1201 ft 91 kts 342°
2026-04-22 13:47 33.87838 -118.29422 1183 ft 92 kts 347°
2026-04-22 13:47 33.88476 -118.29551 1163 ft 94 kts 349°
2026-04-22 13:47 33.89117 -118.29617 1137 ft 92 kts 355°
2026-04-22 13:47 33.89754 -118.29607 1108 ft 91 kts
2026-04-22 13:48 33.90383 -118.29535 1080 ft 91 kts
2026-04-22 13:48 33.91010 -118.29468 1051 ft 90 kts
2026-04-22 13:48 33.91640 -118.29401 1015 ft 91 kts
2026-04-22 13:48 33.92244 -118.29467 928 ft 87 kts 335°
2026-04-22 13:49 33.92573 -118.30046 842 ft 85 kts 286°
2026-04-22 13:49 33.92832 -118.30573 913 ft 73 kts 331°
2026-04-22 13:49 33.93351 -118.30680 885 ft 77 kts 351°
2026-04-22 13:49 33.93907 -118.30752 878 ft 84 kts 353°
2026-04-22 13:50 33.94484 -118.30979 850 ft 90 kts 320°
2026-04-22 13:50 33.94556 -118.31629 951 ft 81 kts 253°
2026-04-22 13:50 33.94368 -118.32267 978 ft 84 kts 249°
2026-04-22 13:50 33.94253 -118.32947 1047 ft 82 kts 265°
2026-04-22 13:51 33.94182 -118.33628 1009 ft 83 kts 261°
2026-04-22 13:51 33.94107 -118.34334 864 ft 88 kts 264°
2026-04-22 13:51 33.94051 -118.35076 716 ft 88 kts 265°
2026-04-22 13:51 33.93984 -118.35792 610 ft 84 kts 264°
2026-04-22 13:52 33.93903 -118.36477 483 ft 82 kts 264°
2026-04-22 13:52 33.93838 -118.37171 333 ft 86 kts 267°
2026-04-22 13:52 33.93774 -118.37879 208 ft 82 kts 268°
2026-04-22 13:52 33.93710 -118.38528 138 ft 72 kts 266°
2026-04-22 13:53 33.93660 -118.39055 130 ft 52 kts 260°
2026-04-22 13:53 33.93627 -118.39344 130 ft 14 kts 263°
2026-04-22 13:53 33.93576 -118.39382 130 ft 13 kts 184°
2026-04-22 13:53 33.93509 -118.39385 130 ft 9 kts 199°
2026-04-22 13:54 33.93438 -118.39397 130 ft 8 kts 188°
2026-04-22 13:54 33.93412 -118.39450 130 ft 14 kts 237°
2026-04-22 13:54 33.93378 -118.39471 130 ft 2 kts 208°
2026-04-22 13:54 33.93375 -118.39477 130 ft 0 kts 265°